Regional Weather Roundup
Issued by NWS

Home | Current Version | Previous Version | Text Only | Print | Product List | Glossary On
Versions: 1 2 3 4 5 6 7 8 9 10 11 12 13 14 15 16 17 18 19 20 21 22 23 24 25 26 27
000
ASUS45 KPSR 302310
RWRAZ

ARIZONA HOURLY REGIONAL WEATHER ROUNDUP
NATIONAL WEATHER SERVICE PHOENIX AZ
400 PM MST SAT APR 30 2016

NOTE: FAIR INDICATES FEW OR NO CLOUDS BELOW 12,000 FEET WITH NO
SIGNIFICANT WEATHER AND/OR OBSTRUCTIONS TO VISIBILITY.

AZZ001>003-036-010000-
NORTHWEST ARIZONA

CITY           SKY/WX    TMP DP  RH WIND       PRES   REMARKS
BULLHEAD CITY  MOSUNNY   68  45  42 N20G26    29.72R
KINGMAN        PTSUNNY   56  45  66 NE14      29.76F
$$

AZZ004>008-015-016-018-010000-
NORTH CENTRAL ARIZONA

CITY           SKY/WX    TMP DP  RH WIND       PRES   REMARKS
GRAND CANYON   CLOUDY    39  36  89 NE12      29.87F WCI  32
WILLIAMS       PTSUNNY   45  37  76 E9        29.88F
PRESCOTT       TSTM      50  38  63 SW14G25   29.74S
FLAGSTAFF      CLOUDY    40  37  89 NE8       29.83F WCI  34
PAYSON         CLOUDY    57  30  35 SW13      29.78S
PAGE           CLOUDY    55  42  61 NE10      29.84F
$$

AZZ009>014-017-010000-
NORTHEAST ARIZONA

CITY           SKY/WX    TMP DP  RH WIND       PRES   REMARKS
WINSLOW        CLOUDY    55  39  54 W9        29.78R
SAINT JOHNS    CLOUDY    58  31  35 S9        29.79R
WINDOW ROCK    LGT RAIN  45  38  76 NE9       29.87S
SHOW LOW       CLOUDY    55  23  28 S10G16    29.80F
$$

AZZ023-010000-
GREATER PHOENIX AREA

CITY           SKY/WX    TMP DP  RH WIND       PRES   REMARKS
PHOENIX        CLOUDY    76  35  22 W12G17    29.56R THUNDER
BUCKEYE        CLOUDY    64  41  42 SW22G35   29.63R
GLENDALE       CLOUDY    77  37  24 S12       29.59S
LUKE AFB       TSTM      75  38  26 W25G33    29.56S
DEER VALLEY    CLOUDY    74  31  20 W3        29.58F
SCOTTSDALE     LGT RAIN  73  39  29 E7        29.60S
MESA-FALCON    PTSUNNY  N/A N/A N/A E17       29.55F
MESA-GATEWAY   CLOUDY    75  36  23 E8        29.58F
CHANDLER       PTSUNNY   81  27  13 MISG      29.56F
$$

AZZ027-028-010000-
SOUTHWEST MARICOPA COUNTY AND PINAL COUNTY

CITY           SKY/WX    TMP DP  RH WIND       PRES   REMARKS
CASA GRANDE    PTSUNNY   81  30  16 SW24      29.59S
GILA BEND      LGT RAIN  66  49  52 W28       29.59S
$$

AZZ503-504-507>509-010000-
SOUTHEAST ARIZONA

CITY           SKY/WX    TMP DP  RH WIND       PRES   REMARKS
TUCSON         CLOUDY    78  25  14 S13G25    29.63F
DAVIS-MONTHAN  PTSUNNY   77  27  15 SW14G26   29.62F
RYAN FIELD     MOSUNNY   81  23  12 SW18G24   29.62F
NOGALES        MOSUNNY   75  26  16 SW23G37   29.71F
SIERRA VISTA   MOSUNNY   72  20  14 SW17G30   29.73R
DOUGLAS        CLOUDY    78  18  10 SW24G35   29.69F
SAFFORD        CLOUDY    74  27  17 W8        29.64F
$$

AZZ020-021-025-026-031-010000-
SOUTHWEST ARIZONA

CITY           SKY/WX    TMP DP  RH WIND       PRES   REMARKS
YUMA           PTSUNNY   77  39  25 NW12      29.62F
$$

CAZ031-033-041-043-047-048-061-010000-
SOUTHERN CALIFORNIA

CITY           SKY/WX    TMP DP  RH WIND       PRES   REMARKS
DOWNTOWN L.A.  MOSUNNY   66  48  52 W5        29.79F
L.A. AIRPORT   MOSUNNY   64  50  60 W14       29.80F
SAN DIEGO      MOSUNNY   64  50  60 SW10      29.81F
BURBANK        MOSUNNY   66  45  46 S12       29.77F
ONTARIO        PTSUNNY   65  47  52 W16       29.77F
RIVERSIDE      CLOUDY    68  46  45 W12G18    29.76F
PALM SPRINGS   CLOUDY    75  45  34 NW15      29.70S
EL CENTRO NAS  CLOUDY   N/A N/A N/A W15       29.66F
IMPERIAL       CLOUDY    76  44  32 NW8       29.64S
BLYTHE         LGT RAIN  67  54  63 S8        29.66F
NEEDLES        SUNNY     72  44  36 NE13      29.69F
$$

NVZ020-UTZ003-010000-
SOUTHERN NEVADA-UTAH

CITY           SKY/WX    TMP DP  RH WIND       PRES   REMARKS
LAS VEGAS      CLOUDY    64  44  48 NE10      29.72F
SALT LAKE CITY PTSUNNY   62  28  27 N15       29.90S
$$

NMZ009-TXZ055-010000-
NEW MEXICO-WEST TEXAS

CITY           SKY/WX    TMP DP  RH WIND       PRES   REMARKS
ALBUQUERQUE    PTSUNNY   63  30  28 VRB6      29.80F
EL PASO        MOSUNNY   77  16  10 VRB3      29.73F
$$


........................KEY........................
SKY/WX - SKY CONDITION/WEATHER
TMP    - TEMPERATURE IN FAHRENHEIT
DP     - DEW POINT IN FAHRENHEIT
RH     - RELATIVE HUMIDITY IN PERCENT
WIND   - DIRECTION AND SPEED IN MILES PER HOUR (MPH)
VRB    - VARIABLE WIND DIRECTION
PRES   - MEAN SEA LEVEL PRESSURE IN INCHES OF MERCURY
         F - FALLING PRESSURE   R - RISING PRESSURE
         S - STEADY PRESSURE
VSB    - VISIBILITY IN MILES
HX     - HEAT INDEX IN FAHRENHEIT
WCI    - WIND CHILL INDEX IN FAHRENHEIT
TC     - TEMPERATURE IN CELSIUS WHICH IS ALSO KNOWN AS
         TEMPERATURE IN CENTIGRADE
AFB    - AIR FORCE BASE
         LUKE AFB IS LUKE AIR FORCE BASE
         DAVIS-MONTHAN IS DAVIS-MONTHAN AIR FORCE BASE
NAS    - NAVAL AIR STATION
         EL CENTRO NAS IS EL CENTRO NAVAL AIR STATION
N/A    - NOT AVAILABLE





USA.gov is the U.S. government's official web portal to all federal, state and local government web resources and services.